Weather Roundup
Issued by NWS Springfield, MO

Home | Current Version | Previous Version | Text Only | Print | Product List | Glossary On
Versions: 1 2 3 4 5 6 7 8 9 10 11 12 13 14 15 16 17 18 19 20 21 22 23 24 25 26 27 28 29 30 31 32 33 34 35 36 37 38 39 40 41 42 43 44 45 46 47 48 49 50
000
NZUS99 KSGF 061859
HRRSGF

HOURLY WEATHER
NATIONAL WEATHER SERVICE SPRINGFIELD MO
200 PM CDT WED MAY 06 2015

......SGF CWA......

CITY           SKY/WX    TMP DP  RH WIND       PRES   REMARKS
SPRINGFIELD    CLOUDY    72  61  68 S17       30.03F
JOPLIN         MOSUNNY   77  59  53 S24G30    29.97F
WEST PLAINS    PTSUNNY   78  55  44 S14       30.09F
ROLLA          PTSUNNY   77  60  55 S8        30.05F
OSAGE BEACH    CLOUDY    79  55  44 S8G22     30.03F
BRANSON        PTSUNNY   75  57  53 S16G25    30.06F

......SURROUNDING SGF CWA......

CITY           SKY/WX    TMP DP  RH WIND       PRES   REMARKS
CHANUTE        CLOUDY    72  63  73 S16G29    29.93F
PARSONS        CLOUDY    71  65  81 SE7       29.95F
COFFEYVILLE    CLOUDY    72  63  73 S13G22    29.93F
EMPORIA        CLOUDY    68  62  81 S28G35    29.88F
HARRISON AR    CLOUDY    71  58  63 SE9       30.06F
NEAR YELLVILLE PTSUNNY   81  55  41 SE10G18   30.03F

......KANSAS AND MISSOURI......

CITY           SKY/WX    TMP DP  RH WIND       PRES   REMARKS
KANSAS CTY INT CLOUDY    73  61  65 S16G26    29.95F
DOWNTOWN KC    CLOUDY    75  60  59 S9G21     29.94F
COLUMBIA       PTSUNNY   77  57  50 S15       30.03F
SEDALIA        CLOUDY    68  61  78 S13       30.04S
ST JOSEPH      CLOUDY    68  60  75 S10       29.93F
ST LOUIS       MOSUNNY   86  53  32 S12G24    30.07F
SPIRIT OF STL  MOSUNNY   84  52  33 S10G22    30.05F
KIRKSVILLE     LGT RAIN  71  59  65 SW7       30.03R
WICHITA        PTSUNNY   72  65  78 S25G36    29.80F
TOPEKA         CLOUDY    72  61  68 SE20      29.90F
OLATHE         PTSUNNY   72  60  66 S20G28    29.94F

......TENNESSEE......

CITY           SKY/WX    TMP DP  RH WIND       PRES   REMARKS
MEMPHIS        PTSUNNY   85  53  33 S10       30.10F
NASHVILLE      MOSUNNY   85  55  35 E3        30.15F

......ARKANSAS.......

CITY           SKY/WX    TMP DP  RH WIND       PRES   REMARKS
FAYETTEVILLE   MOSUNNY   74  64  71 SE20G26   30.02F
FT SMITH       MOSUNNY   80  55  42 SE14      29.99F
LITTLE ROCK    PTSUNNY   82  55  39 S13       30.05F

......OKLAHOMA.......

CITY           SKY/WX    TMP DP  RH WIND       PRES   REMARKS
TULSA          CLOUDY    74  65  73 S21G28    29.91F
PONCA CITY     CLOUDY    73  67  81 SE20G26   29.84F
MCALESTER      CLOUDY    76  65  68 S9        29.96S
OKLAHOMA CITY  CLOUDY    73  65  75 S21G29    29.87F

......IOWA............

CITY           SKY/WX    TMP DP  RH WIND       PRES   REMARKS
DES MOINES     CLOUDY    76  58  53 S20       29.93F
QUAD CITIES    MOSUNNY   83  54  36 S14G26    30.03F

......ILLINOIS........

CITY           SKY/WX    TMP DP  RH WIND       PRES   REMARKS
QUINCY         MOSUNNY   81  55  40 S18G30    30.03F
CHICAGO        MOSUNNY   74  58  57 NE12      30.12F



USA.gov is the U.S. government's official web portal to all federal, state and local government web resources and services.